This is the latest recevied weather packets stored in our database for station/object IZ5MMH-14. If no packets are shown the sender has not sent any weather packets the latest 10 day(s).
| Time | Temp. | Humidity | Pressure | Rain* | Wind** | Luminosity | Snow |
|---|---|---|---|---|---|---|---|
| 1777469999 | 27.78° C | 25% | 1014.9 hPa | - | - | - | - |
| 1777469398 | 28.33° C | 24% | 1015.2 hPa | - | - | - | - |
| 1777468198 | 27.78° C | 25% | 1015.3 hPa | - | - | - | - |
| 1777467598 | 27.78° C | 24% | 1015.3 hPa | - | - | - | - |
| 1777466999 | 27.78° C | 24% | 1015.3 hPa | - | - | - | - |
| 1777466398 | 28.33° C | 25% | 1015.4 hPa | - | - | - | - |
| 1777465798 | 27.22° C | 26% | 1015.4 hPa | - | - | - | - |
| 1777465198 | 27.22° C | 24% | 1015.4 hPa | - | - | - | - |
| 1777464598 | 27.22° C | 25% | 1015.4 hPa | - | - | - | - |
| 1777463998 | 27.78° C | 25% | 1015.4 hPa | - | - | - | - |
| 1777463398 | 27.78° C | 25% | 1015.4 hPa | - | - | - | - |
| 1777462798 | 27.22° C | 26% | 1015.3 hPa | - | - | - | - |
| 1777462198 | 27.78° C | 24% | 1015.3 hPa | - | - | - | - |
| 1777461598 | 27.78° C | 25% | 1015.4 hPa | - | - | - | - |
| 1777460998 | 27.78° C | 24% | 1015.5 hPa | - | - | - | - |
| 1777460398 | 27.22° C | 25% | 1015.5 hPa | - | - | - | - |
| 1777459798 | 27.22° C | 25% | 1015.7 hPa | - | - | - | - |
| 1777459198 | 26.67° C | 25% | 1015.8 hPa | - | - | - | - |
| 1777458598 | 26.67° C | 28% | 1015.9 hPa | - | - | - | - |
| 1777457999 | 26.67° C | 28% | 1016 hPa | - | - | - | - |
| 1777457398 | 26.11° C | 28% | 1016 hPa | - | - | - | - |
| 1777456798 | 26.67° C | 26% | 1015.9 hPa | - | - | - | - |
| 1777456198 | 26.11° C | 27% | 1016 hPa | - | - | - | - |
| 1777455598 | 26.11° C | 29% | 1016 hPa | - | - | - | - |
| 1777454998 | 24.44° C | 29% | 1016 hPa | - | - | - | - |
* Rain since midnight (hover to see other rain measurements)
** Current wind speed in m/s (hover to see current wind gust speed)